owner,sensor,date,latitude,longitude,sea_water_turbidity,qcFlag 
SCCF RECON,ioos:station:SCCF:51:1,2010-01-01T00:00:00Z,26.5545,-82.1715,5.6,1111122 
SCCF RECON,ioos:station:SCCF:51:1,2010-01-01T01:00:00Z,26.5545,-82.1715,6.0,1111122 
SCCF RECON,ioos:station:SCCF:51:1,2010-01-01T02:00:00Z,26.5545,-82.1715,4.77,1111122 
SCCF RECON,ioos:station:SCCF:51:1,2010-01-01T03:00:00Z,26.5545,-82.1715,4.34,1111122 
SCCF RECON,ioos:station:SCCF:51:1,2010-01-01T04:00:00Z,26.5545,-82.1715,4.35,1111122 
SCCF RECON,ioos:station:SCCF:51:1,2010-01-01T05:00:00Z,26.5545,-82.1715,4.48,1111122 
SCCF RECON,ioos:station:SCCF:51:1,2010-01-01T06:00:00Z,26.5545,-82.1715,4.78,1111122 
SCCF RECON,ioos:station:SCCF:51:1,2010-01-01T07:00:00Z,26.5545,-82.1715,4.88,1111122 
SCCF RECON,ioos:station:SCCF:51:1,2010-01-01T08:00:00Z,26.5545,-82.1715,4.87,1111122 
SCCF RECON,ioos:station:SCCF:51:1,2010-01-01T09:00:00Z,26.5545,-82.1715,5.08,1111122 
SCCF RECON,ioos:station:SCCF:51:1,2010-01-01T10:00:00Z,26.5545,-82.1715,4.35,1111122 
SCCF RECON,ioos:station:SCCF:51:1,2010-01-01T11:00:00Z,26.5545,-82.1715,4.13,1111122 
SCCF RECON,ioos:station:SCCF:51:1,2010-01-01T12:00:00Z,26.5545,-82.1715,3.82,1111122 
SCCF RECON,ioos:station:SCCF:51:1,2010-01-01T13:00:00Z,26.5545,-82.1715,4.01,1111122 
SCCF RECON,ioos:station:SCCF:51:1,2010-01-01T14:00:00Z,26.5545,-82.1715,4.51,1111122 
SCCF RECON,ioos:station:SCCF:51:1,2010-01-01T15:00:00Z,26.5545,-82.1715,5.32,1111122 
SCCF RECON,ioos:station:SCCF:51:1,2010-01-01T16:00:00Z,26.5545,-82.1715,6.88,1111122 
SCCF RECON,ioos:station:SCCF:51:1,2010-01-01T17:00:00Z,26.5545,-82.1715,6.7,1111122 
SCCF RECON,ioos:station:SCCF:51:1,2010-01-01T18:00:00Z,26.5545,-82.1715,7.2,1111122 
SCCF RECON,ioos:station:SCCF:51:1,2010-01-01T19:00:00Z,26.5545,-82.1715,5.41,1111122 
SCCF RECON,ioos:station:SCCF:51:1,2010-01-01T20:00:00Z,26.5545,-82.1715,6.4,1111122 
SCCF RECON,ioos:station:SCCF:51:1,2010-01-01T21:00:00Z,26.5545,-82.1715,6.09,1111122 
SCCF RECON,ioos:station:SCCF:51:1,2010-01-01T22:00:00Z,26.5545,-82.1715,9.61,1111122 
SCCF RECON,ioos:station:SCCF:51:1,2010-01-01T23:00:00Z,26.5545,-82.1715,10.4,1111122 
SCCF RECON,ioos:station:SCCF:51:1,2010-01-02T00:00:00Z,26.5545,-82.1715,10.55,1111122 
SCCF RECON,ioos:station:SCCF:51:1,2010-01-02T01:00:00Z,26.5545,-82.1715,7.98,1111122 
SCCF RECON,ioos:station:SCCF:51:1,2010-01-02T02:00:00Z,26.5545,-82.1715,9.8,1111122 
SCCF RECON,ioos:station:SCCF:51:1,2010-01-02T03:00:00Z,26.5545,-82.1715,7.62,1111122 
SCCF RECON,ioos:station:SCCF:51:1,2010-01-02T04:00:00Z,26.5545,-82.1715,8.21,1111122 
SCCF RECON,ioos:station:SCCF:51:1,2010-01-02T05:00:00Z,26.5545,-82.1715,7.03,1111122 
SCCF RECON,ioos:station:SCCF:51:1,2010-01-02T06:00:00Z,26.5545,-82.1715,8.39,1111122 
SCCF RECON,ioos:station:SCCF:51:1,2010-01-02T07:00:00Z,26.5545,-82.1715,9.37,1111122 
SCCF RECON,ioos:station:SCCF:51:1,2010-01-02T08:00:00Z,26.5545,-82.1715,10.06,1111122 
SCCF RECON,ioos:station:SCCF:51:1,2010-01-02T09:00:00Z,26.5545,-82.1715,12.46,1111122 
SCCF RECON,ioos:station:SCCF:51:1,2010-01-02T10:00:00Z,26.5545,-82.1715,13.72,1111122 
SCCF RECON,ioos:station:SCCF:51:1,2010-01-02T11:00:00Z,26.5545,-82.1715,17.2,1111122 
SCCF RECON,ioos:station:SCCF:51:1,2010-01-02T12:00:00Z,26.5545,-82.1715,16.99,1111122 
SCCF RECON,ioos:station:SCCF:51:1,2010-01-02T13:00:00Z,26.5545,-82.1715,16.18,1111122 
SCCF RECON,ioos:station:SCCF:51:1,2010-01-02T14:00:00Z,26.5545,-82.1715,15.41,1111122 
SCCF RECON,ioos:station:SCCF:51:1,2010-01-02T15:00:00Z,26.5545,-82.1715,13.74,1111122 
SCCF RECON,ioos:station:SCCF:51:1,2010-01-02T16:00:00Z,26.5545,-82.1715,17.43,1111122 
SCCF RECON,ioos:station:SCCF:51:1,2010-01-02T17:00:00Z,26.5545,-82.1715,16.09,1111122 
SCCF RECON,ioos:station:SCCF:51:1,2010-01-02T18:00:00Z,26.5545,-82.1715,19.3,1111122 
SCCF RECON,ioos:station:SCCF:51:1,2010-01-02T19:00:00Z,26.5545,-82.1715,13.43,1111122 
SCCF RECON,ioos:station:SCCF:51:1,2010-01-02T20:00:00Z,26.5545,-82.1715,11.24,1111122 
SCCF RECON,ioos:station:SCCF:51:1,2010-01-02T21:00:00Z,26.5545,-82.1715,8.64,1111122 
SCCF RECON,ioos:station:SCCF:51:1,2010-01-02T22:00:00Z,26.5545,-82.1715,10.18,1111122 
SCCF RECON,ioos:station:SCCF:51:1,2010-01-02T23:00:00Z,26.5545,-82.1715,10.26,1111122 
SCCF RECON,ioos:station:SCCF:51:1,2010-01-03T00:00:00Z,26.5545,-82.1715,9.95,1111122 
SCCF RECON,ioos:station:SCCF:51:1,2010-01-03T01:00:00Z,26.5545,-82.1715,8.94,1111122 
SCCF RECON,ioos:station:SCCF:51:1,2010-01-03T02:00:00Z,26.5545,-82.1715,6.7,1111122 
SCCF RECON,ioos:station:SCCF:51:1,2010-01-03T03:00:00Z,26.5545,-82.1715,7.12,1111122 
SCCF RECON,ioos:station:SCCF:51:1,2010-01-03T04:00:00Z,26.5545,-82.1715,7.54,1111122 
SCCF RECON,ioos:station:SCCF:51:1,2010-01-03T05:00:00Z,26.5545,-82.1715,11.03,1111122 
SCCF RECON,ioos:station:SCCF:51:1,2010-01-03T06:00:00Z,26.5545,-82.1715,12.18,1111122 
SCCF RECON,ioos:station:SCCF:51:1,2010-01-03T07:00:00Z,26.5545,-82.1715,13.31,1111122 
SCCF RECON,ioos:station:SCCF:51:1,2010-01-03T08:00:00Z,26.5545,-82.1715,8.56,1111122 
SCCF RECON,ioos:station:SCCF:51:1,2010-01-03T09:00:00Z,26.5545,-82.1715,8.76,1111122 
SCCF RECON,ioos:station:SCCF:51:1,2010-01-03T10:00:00Z,26.5545,-82.1715,7.98,1111122 
SCCF RECON,ioos:station:SCCF:51:1,2010-01-03T11:00:00Z,26.5545,-82.1715,8.16,1111122 
SCCF RECON,ioos:station:SCCF:51:1,2010-01-03T12:00:00Z,26.5545,-82.1715,7.76,1111122 
SCCF RECON,ioos:station:SCCF:51:1,2010-01-03T13:00:00Z,26.5545,-82.1715,8.21,1111122 
SCCF RECON,ioos:station:SCCF:51:1,2010-01-03T14:00:00Z,26.5545,-82.1715,8.11,1111122 
SCCF RECON,ioos:station:SCCF:51:1,2010-01-03T15:00:00Z,26.5545,-82.1715,8.57,1111122 
SCCF RECON,ioos:station:SCCF:51:1,2010-01-03T16:00:00Z,26.5545,-82.1715,14.17,1111122 
SCCF RECON,ioos:station:SCCF:51:1,2010-01-03T17:00:00Z,26.5545,-82.1715,8.21,1111122 
SCCF RECON,ioos:station:SCCF:51:1,2010-01-03T18:00:00Z,26.5545,-82.1715,10.47,1111122 
SCCF RECON,ioos:station:SCCF:51:1,2010-01-03T19:00:00Z,26.5545,-82.1715,11.45,1111122 
SCCF RECON,ioos:station:SCCF:51:1,2010-01-03T20:00:00Z,26.5545,-82.1715,10.61,1111122 
SCCF RECON,ioos:station:SCCF:51:1,2010-01-03T21:00:00Z,26.5545,-82.1715,11.11,1111122 
SCCF RECON,ioos:station:SCCF:51:1,2010-01-03T22:00:00Z,26.5545,-82.1715,10.91,1111122 
SCCF RECON,ioos:station:SCCF:51:1,2010-01-03T23:00:00Z,26.5545,-82.1715,9.58,1111122 
SCCF RECON,ioos:station:SCCF:51:1,2010-01-04T00:00:00Z,26.5545,-82.1715,9.0,1111122 
SCCF RECON,ioos:station:SCCF:51:1,2010-01-04T01:00:00Z,26.5545,-82.1715,7.6,1111122 
SCCF RECON,ioos:station:SCCF:51:1,2010-01-04T02:00:00Z,26.5545,-82.1715,10.0,1111122 
SCCF RECON,ioos:station:SCCF:51:1,2010-01-04T03:00:00Z,26.5545,-82.1715,10.77,1111122 
SCCF RECON,ioos:station:SCCF:51:1,2010-01-04T04:00:00Z,26.5545,-82.1715,8.69,1111122 
SCCF RECON,ioos:station:SCCF:51:1,2010-01-04T05:00:00Z,26.5545,-82.1715,11.62,1111122 
SCCF RECON,ioos:station:SCCF:51:1,2010-01-04T06:00:00Z,26.5545,-82.1715,13.54,1111122 
SCCF RECON,ioos:station:SCCF:51:1,2010-01-04T07:00:00Z,26.5545,-82.1715,9.69,1111122 
SCCF RECON,ioos:station:SCCF:51:1,2010-01-04T08:00:00Z,26.5545,-82.1715,10.32,1111122 
SCCF RECON,ioos:station:SCCF:51:1,2010-01-04T09:00:00Z,26.5545,-82.1715,9.41,1111122 
SCCF RECON,ioos:station:SCCF:51:1,2010-01-04T10:00:00Z,26.5545,-82.1715,10.5,1111122 
SCCF RECON,ioos:station:SCCF:51:1,2010-01-04T11:00:00Z,26.5545,-82.1715,92.45,1111122 
SCCF RECON,ioos:station:SCCF:51:1,2010-01-04T12:00:00Z,26.5545,-82.1715,8.14,1111122 
SCCF RECON,ioos:station:SCCF:51:1,2010-01-04T13:00:00Z,26.5545,-82.1715,7.01,1111122 
SCCF RECON,ioos:station:SCCF:51:1,2010-01-04T14:00:00Z,26.5545,-82.1715,7.07,1111122 
SCCF RECON,ioos:station:SCCF:51:1,2010-01-04T15:00:00Z,26.5545,-82.1715,6.17,1111122 
SCCF RECON,ioos:station:SCCF:51:1,2010-01-04T16:00:00Z,26.5545,-82.1715,7.25,1111122 
SCCF RECON,ioos:station:SCCF:51:1,2010-01-04T17:00:00Z,26.5545,-82.1715,6.87,1111122 
SCCF RECON,ioos:station:SCCF:51:1,2010-01-04T18:00:00Z,26.5545,-82.1715,8.5,1111122 
SCCF RECON,ioos:station:SCCF:51:1,2010-01-04T19:00:00Z,26.5545,-82.1715,8.77,1111122 
SCCF RECON,ioos:station:SCCF:51:1,2010-01-04T20:00:00Z,26.5545,-82.1715,8.06,1111122 
SCCF RECON,ioos:station:SCCF:51:1,2010-01-04T21:00:00Z,26.5545,-82.1715,8.49,1111122 
SCCF RECON,ioos:station:SCCF:51:1,2010-01-04T22:00:00Z,26.5545,-82.1715,9.31,1111122 
SCCF RECON,ioos:station:SCCF:51:1,2010-01-04T23:00:00Z,26.5545,-82.1715,9.91,1111122 
SCCF RECON,ioos:station:SCCF:51:1,2010-01-05T00:00:00Z,26.5545,-82.1715,9.01,1111122 
SCCF RECON,ioos:station:SCCF:51:1,2010-01-05T01:00:00Z,26.5545,-82.1715,28.41,1111122 
SCCF RECON,ioos:station:SCCF:51:1,2010-01-05T02:00:00Z,26.5545,-82.1715,18.75,1111122 
SCCF RECON,ioos:station:SCCF:51:1,2010-01-05T03:00:00Z,26.5545,-82.1715,6.27,1111122 
SCCF RECON,ioos:station:SCCF:51:1,2010-01-05T04:00:00Z,26.5545,-82.1715,5.65,1111122 
SCCF RECON,ioos:station:SCCF:51:1,2010-01-05T05:00:00Z,26.5545,-82.1715,5.54,1111122 
SCCF RECON,ioos:station:SCCF:51:1,2010-01-05T06:00:00Z,26.5545,-82.1715,6.12,1111122 
SCCF RECON,ioos:station:SCCF:51:1,2010-01-05T07:00:00Z,26.5545,-82.1715,7.53,1111122 
SCCF RECON,ioos:station:SCCF:51:1,2010-01-05T08:00:00Z,26.5545,-82.1715,9.42,1111122 
SCCF RECON,ioos:station:SCCF:51:1,2010-01-05T09:00:00Z,26.5545,-82.1715,7.36,1111122 
SCCF RECON,ioos:station:SCCF:51:1,2010-01-05T10:00:00Z,26.5545,-82.1715,159.68,1111122 
SCCF RECON,ioos:station:SCCF:51:1,2010-01-05T11:00:00Z,26.5545,-82.1715,6.45,1111122 
SCCF RECON,ioos:station:SCCF:51:1,2010-01-05T12:00:00Z,26.5545,-82.1715,5.93,1111122 
SCCF RECON,ioos:station:SCCF:51:1,2010-01-05T13:00:00Z,26.5545,-82.1715,7.34,1111122 
SCCF RECON,ioos:station:SCCF:51:1,2010-01-05T14:00:00Z,26.5545,-82.1715,8.07,1111122 
SCCF RECON,ioos:station:SCCF:51:1,2010-01-05T15:00:00Z,26.5545,-82.1715,7.19,1111122 
SCCF RECON,ioos:station:SCCF:51:1,2010-01-05T16:00:00Z,26.5545,-82.1715,6.92,1111122 
SCCF RECON,ioos:station:SCCF:51:1,2010-01-05T17:00:00Z,26.5545,-82.1715,7.01,1111122 
SCCF RECON,ioos:station:SCCF:51:1,2010-01-05T18:00:00Z,26.5545,-82.1715,7.33,1111122 
SCCF RECON,ioos:station:SCCF:51:1,2010-01-05T19:00:00Z,26.5545,-82.1715,7.03,1111122 
SCCF RECON,ioos:station:SCCF:51:1,2010-01-05T20:00:00Z,26.5545,-82.1715,12.0,1111122 
SCCF RECON,ioos:station:SCCF:51:1,2010-01-05T21:00:00Z,26.5545,-82.1715,10.92,1111122 
SCCF RECON,ioos:station:SCCF:51:1,2010-01-05T22:00:00Z,26.5545,-82.1715,13.17,1111122 
SCCF RECON,ioos:station:SCCF:51:1,2010-01-05T23:00:00Z,26.5545,-82.1715,16.06,1111122 
SCCF RECON,ioos:station:SCCF:51:1,2010-01-06T00:00:00Z,26.5545,-82.1715,11.33,1111122 
SCCF RECON,ioos:station:SCCF:51:1,2010-01-06T01:00:00Z,26.5545,-82.1715,8.17,1111122 
SCCF RECON,ioos:station:SCCF:51:1,2010-01-06T02:00:00Z,26.5545,-82.1715,7.07,1111122 
SCCF RECON,ioos:station:SCCF:51:1,2010-01-06T03:00:00Z,26.5545,-82.1715,5.59,1111122 
SCCF RECON,ioos:station:SCCF:51:1,2010-01-06T04:00:00Z,26.5545,-82.1715,6.19,1111122 
SCCF RECON,ioos:station:SCCF:51:1,2010-01-06T05:00:00Z,26.5545,-82.1715,7.59,1111122 
SCCF RECON,ioos:station:SCCF:51:1,2010-01-06T06:00:00Z,26.5545,-82.1715,4.83,1111122 
SCCF RECON,ioos:station:SCCF:51:1,2010-01-06T07:00:00Z,26.5545,-82.1715,9.45,1111122 
SCCF RECON,ioos:station:SCCF:51:1,2010-01-06T08:00:00Z,26.5545,-82.1715,5.87,1111122 
SCCF RECON,ioos:station:SCCF:51:1,2010-01-06T09:00:00Z,26.5545,-82.1715,22.81,1111122 
SCCF RECON,ioos:station:SCCF:51:1,2010-01-06T10:00:00Z,26.5545,-82.1715,26.54,1111122 
SCCF RECON,ioos:station:SCCF:51:1,2010-01-06T11:00:00Z,26.5545,-82.1715,181.38,1111122 
SCCF RECON,ioos:station:SCCF:51:1,2010-01-06T12:00:00Z,26.5545,-82.1715,5.41,1111122 
SCCF RECON,ioos:station:SCCF:51:1,2010-01-06T13:00:00Z,26.5545,-82.1715,5.31,1111122 
SCCF RECON,ioos:station:SCCF:51:1,2010-01-06T14:00:00Z,26.5545,-82.1715,4.78,1111122 
SCCF RECON,ioos:station:SCCF:51:1,2010-01-06T15:00:00Z,26.5545,-82.1715,3.87,1111122 
SCCF RECON,ioos:station:SCCF:51:1,2010-01-06T16:00:00Z,26.5545,-82.1715,3.73,1111122 
SCCF RECON,ioos:station:SCCF:51:1,2010-01-06T17:00:00Z,26.5545,-82.1715,3.42,1111122 
SCCF RECON,ioos:station:SCCF:51:1,2010-01-06T18:00:00Z,26.5545,-82.1715,3.7,1111122 
SCCF RECON,ioos:station:SCCF:51:1,2010-01-06T19:00:00Z,26.5545,-82.1715,4.63,1111122 
SCCF RECON,ioos:station:SCCF:51:1,2010-01-06T20:00:00Z,26.5545,-82.1715,5.53,1111122 
SCCF RECON,ioos:station:SCCF:51:1,2010-01-06T21:00:00Z,26.5545,-82.1715,14.47,1111122 
SCCF RECON,ioos:station:SCCF:51:1,2010-01-06T22:00:00Z,26.5545,-82.1715,18.28,1111122 
SCCF RECON,ioos:station:SCCF:51:1,2010-01-06T23:00:00Z,26.5545,-82.1715,13.93,1111122 
SCCF RECON,ioos:station:SCCF:51:1,2010-01-07T00:00:00Z,26.5545,-82.1715,11.1,1111122 
SCCF RECON,ioos:station:SCCF:51:1,2010-01-07T01:00:00Z,26.5545,-82.1715,10.32,1111122 
SCCF RECON,ioos:station:SCCF:51:1,2010-01-07T02:00:00Z,26.5545,-82.1715,7.25,1111122 
SCCF RECON,ioos:station:SCCF:51:1,2010-01-07T03:00:00Z,26.5545,-82.1715,5.57,1111122 
SCCF RECON,ioos:station:SCCF:51:1,2010-01-07T04:00:00Z,26.5545,-82.1715,4.28,1111122 
SCCF RECON,ioos:station:SCCF:51:1,2010-01-07T05:00:00Z,26.5545,-82.1715,11.9,1111122 
SCCF RECON,ioos:station:SCCF:51:1,2010-01-07T06:00:00Z,26.5545,-82.1715,-9999.0,1111122 
SCCF RECON,ioos:station:SCCF:51:1,2010-01-07T07:00:00Z,26.5545,-82.1715,-9999.0,1111122 
SCCF RECON,ioos:station:SCCF:51:1,2010-01-07T08:00:00Z,26.5545,-82.1715,-9999.0,1111122 
SCCF RECON,ioos:station:SCCF:51:1,2010-01-07T09:00:00Z,26.5545,-82.1715,-9999.0,1111122 
SCCF RECON,ioos:station:SCCF:51:1,2010-01-07T10:00:00Z,26.5545,-82.1715,-9999.0,1111122 
SCCF RECON,ioos:station:SCCF:51:1,2010-01-07T11:00:00Z,26.5545,-82.1715,-9999.0,1111122 
SCCF RECON,ioos:station:SCCF:51:1,2010-01-07T12:00:00Z,26.5545,-82.1715,-9999.0,1111122 
SCCF RECON,ioos:station:SCCF:51:1,2010-01-07T13:00:00Z,26.5545,-82.1715,-9999.0,1111122 
SCCF RECON,ioos:station:SCCF:51:1,2010-01-07T14:00:00Z,26.5545,-82.1715,-9999.0,1111122 
SCCF RECON,ioos:station:SCCF:51:1,2010-01-07T15:00:00Z,26.5545,-82.1715,-9999.0,1111122 
SCCF RECON,ioos:station:SCCF:51:1,2010-01-07T16:00:00Z,26.5545,-82.1715,-9999.0,1111122 
SCCF RECON,ioos:station:SCCF:51:1,2010-01-07T17:00:00Z,26.5545,-82.1715,-9999.0,1111122 
SCCF RECON,ioos:station:SCCF:51:1,2010-01-07T18:00:00Z,26.5545,-82.1715,-9999.0,1111122 
SCCF RECON,ioos:station:SCCF:51:1,2010-01-07T19:00:00Z,26.5545,-82.1715,-9999.0,1111122 
SCCF RECON,ioos:station:SCCF:51:1,2010-01-07T21:00:00Z,26.5545,-82.1715,11.82,1111122 
SCCF RECON,ioos:station:SCCF:51:1,2010-01-07T22:00:00Z,26.5545,-82.1715,8.25,1111122 
SCCF RECON,ioos:station:SCCF:51:1,2010-01-07T23:00:00Z,26.5545,-82.1715,9.57,1111122 
SCCF RECON,ioos:station:SCCF:51:1,2010-01-08T00:00:00Z,26.5545,-82.1715,9.85,1111122 
SCCF RECON,ioos:station:SCCF:51:1,2010-01-08T01:00:00Z,26.5545,-82.1715,8.39,1111122 
SCCF RECON,ioos:station:SCCF:51:1,2010-01-08T02:00:00Z,26.5545,-82.1715,6.05,1111122 
SCCF RECON,ioos:station:SCCF:51:1,2010-01-08T03:00:00Z,26.5545,-82.1715,3.8,1111122 
SCCF RECON,ioos:station:SCCF:51:1,2010-01-08T04:00:00Z,26.5545,-82.1715,3.66,1111122 
SCCF RECON,ioos:station:SCCF:51:1,2010-01-08T05:00:00Z,26.5545,-82.1715,170.64,1111122 
SCCF RECON,ioos:station:SCCF:51:1,2010-01-08T06:00:00Z,26.5545,-82.1715,140.69,1111122 
SCCF RECON,ioos:station:SCCF:51:1,2010-01-08T07:00:00Z,26.5545,-82.1715,59.25,1111122 
SCCF RECON,ioos:station:SCCF:51:1,2010-01-08T08:00:00Z,26.5545,-82.1715,3.45,1111122 
SCCF RECON,ioos:station:SCCF:51:1,2010-01-08T09:00:00Z,26.5545,-82.1715,3.45,1111122 
SCCF RECON,ioos:station:SCCF:51:1,2010-01-08T10:00:00Z,26.5545,-82.1715,96.35,1111122 
SCCF RECON,ioos:station:SCCF:51:1,2010-01-08T11:00:00Z,26.5545,-82.1715,5.53,1111122 
SCCF RECON,ioos:station:SCCF:51:1,2010-01-08T12:00:00Z,26.5545,-82.1715,4.16,1111122 
SCCF RECON,ioos:station:SCCF:51:1,2010-01-08T13:00:00Z,26.5545,-82.1715,3.72,1111122 
SCCF RECON,ioos:station:SCCF:51:1,2010-01-08T14:00:00Z,26.5545,-82.1715,4.41,1111122 
SCCF RECON,ioos:station:SCCF:51:1,2010-01-08T15:00:00Z,26.5545,-82.1715,21.64,1111122 
SCCF RECON,ioos:station:SCCF:51:1,2010-01-08T16:00:00Z,26.5545,-82.1715,3.7,1111122 
SCCF RECON,ioos:station:SCCF:51:1,2010-01-08T17:00:00Z,26.5545,-82.1715,3.61,1111122 
SCCF RECON,ioos:station:SCCF:51:1,2010-01-08T18:00:00Z,26.5545,-82.1715,4.74,1111122 
SCCF RECON,ioos:station:SCCF:51:1,2010-01-08T19:00:00Z,26.5545,-82.1715,7.18,1111122 
SCCF RECON,ioos:station:SCCF:51:1,2010-01-08T20:00:00Z,26.5545,-82.1715,10.42,1111122 
SCCF RECON,ioos:station:SCCF:51:1,2010-01-08T21:00:00Z,26.5545,-82.1715,7.61,1111122 
SCCF RECON,ioos:station:SCCF:51:1,2010-01-08T22:00:00Z,26.5545,-82.1715,7.86,1111122 
SCCF RECON,ioos:station:SCCF:51:1,2010-01-08T23:00:00Z,26.5545,-82.1715,6.32,1111122 
SCCF RECON,ioos:station:SCCF:51:1,2010-01-09T00:00:00Z,26.5545,-82.1715,99.49,1111122 
SCCF RECON,ioos:station:SCCF:51:1,2010-01-09T01:00:00Z,26.5545,-82.1715,6.99,1111122 
SCCF RECON,ioos:station:SCCF:51:1,2010-01-09T02:00:00Z,26.5545,-82.1715,7.75,1111122 
SCCF RECON,ioos:station:SCCF:51:1,2010-01-09T03:00:00Z,26.5545,-82.1715,8.02,1111122 
SCCF RECON,ioos:station:SCCF:51:1,2010-01-09T04:00:00Z,26.5545,-82.1715,4.96,1111122 
SCCF RECON,ioos:station:SCCF:51:1,2010-01-09T05:00:00Z,26.5545,-82.1715,3.57,1111122 
SCCF RECON,ioos:station:SCCF:51:1,2010-01-09T06:00:00Z,26.5545,-82.1715,3.28,1111122 
SCCF RECON,ioos:station:SCCF:51:1,2010-01-09T07:00:00Z,26.5545,-82.1715,3.09,1111122 
SCCF RECON,ioos:station:SCCF:51:1,2010-01-09T08:00:00Z,26.5545,-82.1715,3.29,1111122 
SCCF RECON,ioos:station:SCCF:51:1,2010-01-09T09:00:00Z,26.5545,-82.1715,4.54,1111122 
SCCF RECON,ioos:station:SCCF:51:1,2010-01-09T10:00:00Z,26.5545,-82.1715,5.78,1111122 
SCCF RECON,ioos:station:SCCF:51:1,2010-01-09T11:00:00Z,26.5545,-82.1715,5.56,1111122 
SCCF RECON,ioos:station:SCCF:51:1,2010-01-09T12:00:00Z,26.5545,-82.1715,5.51,1111122 
SCCF RECON,ioos:station:SCCF:51:1,2010-01-09T13:00:00Z,26.5545,-82.1715,7.55,1111122 
SCCF RECON,ioos:station:SCCF:51:1,2010-01-09T14:00:00Z,26.5545,-82.1715,8.33,1111122 
SCCF RECON,ioos:station:SCCF:51:1,2010-01-09T15:00:00Z,26.5545,-82.1715,7.41,1111122 
SCCF RECON,ioos:station:SCCF:51:1,2010-01-09T16:00:00Z,26.5545,-82.1715,4.87,1111122 
SCCF RECON,ioos:station:SCCF:51:1,2010-01-09T17:00:00Z,26.5545,-82.1715,7.14,1111122 
SCCF RECON,ioos:station:SCCF:51:1,2010-01-09T18:00:00Z,26.5545,-82.1715,7.74,1111122 
SCCF RECON,ioos:station:SCCF:51:1,2010-01-09T19:00:00Z,26.5545,-82.1715,4.9,1111122 
SCCF RECON,ioos:station:SCCF:51:1,2010-01-09T20:00:00Z,26.5545,-82.1715,4.51,1111122 
SCCF RECON,ioos:station:SCCF:51:1,2010-01-09T21:00:00Z,26.5545,-82.1715,3.8,1111122 
SCCF RECON,ioos:station:SCCF:51:1,2010-01-09T22:00:00Z,26.5545,-82.1715,6.92,1111122 
SCCF RECON,ioos:station:SCCF:51:1,2010-01-09T23:00:00Z,26.5545,-82.1715,5.51,1111122 
SCCF RECON,ioos:station:SCCF:51:1,2010-01-10T00:00:00Z,26.5545,-82.1715,7.4,1111122 
SCCF RECON,ioos:station:SCCF:51:1,2010-01-10T01:00:00Z,26.5545,-82.1715,6.99,1111122 
SCCF RECON,ioos:station:SCCF:51:1,2010-01-10T02:00:00Z,26.5545,-82.1715,7.06,1111122 
SCCF RECON,ioos:station:SCCF:51:1,2010-01-10T03:00:00Z,26.5545,-82.1715,4.68,1111122 
SCCF RECON,ioos:station:SCCF:51:1,2010-01-10T04:00:00Z,26.5545,-82.1715,4.37,1111122 
SCCF RECON,ioos:station:SCCF:51:1,2010-01-10T05:00:00Z,26.5545,-82.1715,4.95,1111122 
SCCF RECON,ioos:station:SCCF:51:1,2010-01-10T06:00:00Z,26.5545,-82.1715,7.05,1111122 
SCCF RECON,ioos:station:SCCF:51:1,2010-01-10T07:00:00Z,26.5545,-82.1715,8.43,1111122 
SCCF RECON,ioos:station:SCCF:51:1,2010-01-10T08:00:00Z,26.5545,-82.1715,9.57,1111122 
SCCF RECON,ioos:station:SCCF:51:1,2010-01-10T09:00:00Z,26.5545,-82.1715,10.77,1111122 
SCCF RECON,ioos:station:SCCF:51:1,2010-01-10T10:00:00Z,26.5545,-82.1715,12.86,1111122 
SCCF RECON,ioos:station:SCCF:51:1,2010-01-10T11:00:00Z,26.5545,-82.1715,13.65,1111122 
SCCF RECON,ioos:station:SCCF:51:1,2010-01-10T12:00:00Z,26.5545,-82.1715,14.13,1111122 
SCCF RECON,ioos:station:SCCF:51:1,2010-01-10T13:00:00Z,26.5545,-82.1715,15.17,1111122 
SCCF RECON,ioos:station:SCCF:51:1,2010-01-10T14:00:00Z,26.5545,-82.1715,17.18,1111122 
SCCF RECON,ioos:station:SCCF:51:1,2010-01-10T15:00:00Z,26.5545,-82.1715,15.95,1111122 
SCCF RECON,ioos:station:SCCF:51:1,2010-01-10T16:00:00Z,26.5545,-82.1715,29.45,1111122 
SCCF RECON,ioos:station:SCCF:51:1,2010-01-10T17:00:00Z,26.5545,-82.1715,31.18,1111122 
SCCF RECON,ioos:station:SCCF:51:1,2010-01-10T18:00:00Z,26.5545,-82.1715,9.8,1111122 
SCCF RECON,ioos:station:SCCF:51:1,2010-01-10T19:00:00Z,26.5545,-82.1715,11.55,1111122 
SCCF RECON,ioos:station:SCCF:51:1,2010-01-10T20:00:00Z,26.5545,-82.1715,12.56,1111122 
SCCF RECON,ioos:station:SCCF:51:1,2010-01-10T21:00:00Z,26.5545,-82.1715,10.8,1111122 
SCCF RECON,ioos:station:SCCF:51:1,2010-01-10T22:00:00Z,26.5545,-82.1715,8.76,1111122 
SCCF RECON,ioos:station:SCCF:51:1,2010-01-10T23:00:00Z,26.5545,-82.1715,8.91,1111122 
SCCF RECON,ioos:station:SCCF:51:1,2010-01-11T00:00:00Z,26.5545,-82.1715,10.3,1111122 
SCCF RECON,ioos:station:SCCF:51:1,2010-01-11T01:00:00Z,26.5545,-82.1715,11.3,1111122 
SCCF RECON,ioos:station:SCCF:51:1,2010-01-11T02:00:00Z,26.5545,-82.1715,12.04,1111122 
SCCF RECON,ioos:station:SCCF:51:1,2010-01-11T03:00:00Z,26.5545,-82.1715,13.27,1111122 
SCCF RECON,ioos:station:SCCF:51:1,2010-01-11T04:00:00Z,26.5545,-82.1715,10.63,1111122 
SCCF RECON,ioos:station:SCCF:51:1,2010-01-11T05:00:00Z,26.5545,-82.1715,10.15,1111122 
SCCF RECON,ioos:station:SCCF:51:1,2010-01-11T06:00:00Z,26.5545,-82.1715,9.97,1111122 
SCCF RECON,ioos:station:SCCF:51:1,2010-01-11T07:00:00Z,26.5545,-82.1715,9.32,1111122 
SCCF RECON,ioos:station:SCCF:51:1,2010-01-11T08:00:00Z,26.5545,-82.1715,8.74,1111122 
SCCF RECON,ioos:station:SCCF:51:1,2010-01-11T09:00:00Z,26.5545,-82.1715,7.87,1111122 
SCCF RECON,ioos:station:SCCF:51:1,2010-01-11T10:00:00Z,26.5545,-82.1715,8.21,1111122 
SCCF RECON,ioos:station:SCCF:51:1,2010-01-11T11:00:00Z,26.5545,-82.1715,8.1,1111122 
SCCF RECON,ioos:station:SCCF:51:1,2010-01-11T12:00:00Z,26.5545,-82.1715,7.37,1111122 
SCCF RECON,ioos:station:SCCF:51:1,2010-01-11T13:00:00Z,26.5545,-82.1715,8.57,1111122 
SCCF RECON,ioos:station:SCCF:51:1,2010-01-11T14:00:00Z,26.5545,-82.1715,9.21,1111122 
SCCF RECON,ioos:station:SCCF:51:1,2010-01-11T15:00:00Z,26.5545,-82.1715,12.33,1111122 
SCCF RECON,ioos:station:SCCF:51:1,2010-01-11T16:00:00Z,26.5545,-82.1715,13.83,1111122 
SCCF RECON,ioos:station:SCCF:51:1,2010-01-11T17:00:00Z,26.5545,-82.1715,11.59,1111122 
SCCF RECON,ioos:station:SCCF:51:1,2010-01-11T18:00:00Z,26.5545,-82.1715,11.21,1111122 
SCCF RECON,ioos:station:SCCF:51:1,2010-01-11T19:00:00Z,26.5545,-82.1715,10.16,1111122 
SCCF RECON,ioos:station:SCCF:51:1,2010-01-11T20:00:00Z,26.5545,-82.1715,7.99,1111122 
SCCF RECON,ioos:station:SCCF:51:1,2010-01-11T21:00:00Z,26.5545,-82.1715,7.3,1111122 
SCCF RECON,ioos:station:SCCF:51:1,2010-01-11T22:00:00Z,26.5545,-82.1715,7.04,1111122 
SCCF RECON,ioos:station:SCCF:51:1,2010-01-11T23:00:00Z,26.5545,-82.1715,7.17,1111122 
SCCF RECON,ioos:station:SCCF:51:1,2010-01-12T00:00:00Z,26.5545,-82.1715,6.95,1111122 
SCCF RECON,ioos:station:SCCF:51:1,2010-01-12T01:00:00Z,26.5545,-82.1715,7.15,1111122 
SCCF RECON,ioos:station:SCCF:51:1,2010-01-12T02:00:00Z,26.5545,-82.1715,7.56,1111122 
SCCF RECON,ioos:station:SCCF:51:1,2010-01-12T03:00:00Z,26.5545,-82.1715,8.05,1111122 
SCCF RECON,ioos:station:SCCF:51:1,2010-01-12T04:00:00Z,26.5545,-82.1715,8.5,1111122 
SCCF RECON,ioos:station:SCCF:51:1,2010-01-12T05:00:00Z,26.5545,-82.1715,6.14,1111122 
SCCF RECON,ioos:station:SCCF:51:1,2010-01-12T06:00:00Z,26.5545,-82.1715,5.58,1111122 
SCCF RECON,ioos:station:SCCF:51:1,2010-01-12T07:00:00Z,26.5545,-82.1715,5.67,1111122 
SCCF RECON,ioos:station:SCCF:51:1,2010-01-12T08:00:00Z,26.5545,-82.1715,5.78,1111122 
SCCF RECON,ioos:station:SCCF:51:1,2010-01-12T09:00:00Z,26.5545,-82.1715,5.6,1111122 
SCCF RECON,ioos:station:SCCF:51:1,2010-01-12T10:00:00Z,26.5545,-82.1715,5.48,1111122 
SCCF RECON,ioos:station:SCCF:51:1,2010-01-12T11:00:00Z,26.5545,-82.1715,5.46,1111122 
SCCF RECON,ioos:station:SCCF:51:1,2010-01-12T12:00:00Z,26.5545,-82.1715,5.02,1111122 
SCCF RECON,ioos:station:SCCF:51:1,2010-01-12T13:00:00Z,26.5545,-82.1715,4.81,1111122 